TimeCST,TemperatureF,Dew PointF,Humidity,Sea Level PressureIn,VisibilityMPH,Wind Direction,Wind SpeedMPH,Gust SpeedMPH,PrecipitationIn,Events,Conditions,WindDirDegrees,DateUTC
12:53 AM,42.1,35.1,76,30.21,10.0,SSE,13.8,19.6,N/A,,Clear,150,2013-11-04 06:53:00
1:53 AM,42.1,35.1,76,30.22,10.0,SSE,11.5,-,N/A,,Clear,150,2013-11-04 07:53:00
2:53 AM,43.0,35.1,74,30.21,10.0,SSE,13.8,-,N/A,,Clear,160,2013-11-04 08:53:00
3:53 AM,43.0,35.1,74,30.19,10.0,SSE,13.8,-,N/A,,Clear,150,2013-11-04 09:53:00
4:53 AM,43.0,35.1,74,30.17,10.0,SSE,16.1,-,N/A,,Clear,160,2013-11-04 10:53:00
5:53 AM,43.0,35.1,74,30.15,10.0,SSE,13.8,-,N/A,,Clear,160,2013-11-04 11:53:00
6:53 AM,44.1,35.1,71,30.14,10.0,SSE,18.4,-,N/A,,Partly Cloudy,160,2013-11-04 12:53:00
7:53 AM,45.0,35.1,68,30.14,10.0,South,18.4,25.3,N/A,,Partly Cloudy,170,2013-11-04 13:53:00
8:53 AM,46.9,36.0,66,30.12,10.0,SSE,19.6,26.5,N/A,,Clear,160,2013-11-04 14:53:00
9:53 AM,48.0,36.0,63,30.12,10.0,South,19.6,26.5,N/A,,Clear,170,2013-11-04 15:53:00
10:53 AM,50.0,36.0,59,30.11,10.0,South,19.6,28.8,N/A,,Scattered Clouds,180,2013-11-04 16:53:00
11:53 AM,50.0,37.0,61,30.09,10.0,South,12.7,24.2,N/A,,Mostly Cloudy,190,2013-11-04 17:53:00
12:53 PM,51.1,37.9,61,30.06,10.0,South,16.1,-,N/A,,Scattered Clouds,180,2013-11-04 18:53:00
1:53 PM,50.0,39.9,68,30.04,9.0,South,13.8,29.9,0.00,Rain,Light Rain,180,2013-11-04 19:53:00
2:53 PM,52.0,39.9,63,30.04,10.0,South,12.7,-,0.01,,Overcast,190,2013-11-04 20:53:00
3:53 PM,53.1,39.9,61,30.06,10.0,SSW,6.9,-,N/A,,Overcast,210,2013-11-04 21:53:00
4:53 PM,53.1,39.9,61,30.07,10.0,SSW,5.8,-,N/A,,Overcast,200,2013-11-04 22:53:00
5:53 PM,53.1,39.9,61,30.09,10.0,South,10.4,-,N/A,,Overcast,190,2013-11-04 23:53:00
6:53 PM,52.0,41.0,66,30.11,10.0,SSW,6.9,-,N/A,,Overcast,210,2013-11-05 00:53:00
7:53 PM,52.0,41.0,66,30.12,10.0,SSW,6.9,-,N/A,,Overcast,200,2013-11-05 01:53:00
8:53 PM,52.0,42.1,69,30.14,10.0,SSW,6.9,-,N/A,,Overcast,210,2013-11-05 02:53:00
9:53 PM,52.0,43.0,71,30.15,10.0,SW,4.6,-,N/A,,Overcast,220,2013-11-05 03:53:00
10:33 PM,50.0,44.6,82,30.15,10.0,SW,5.8,-,N/A,,Overcast,230,2013-11-05 04:33:00
10:53 PM,50.0,46.0,86,30.16,10.0,SW,5.8,-,N/A,,Overcast,220,2013-11-05 04:53:00
11:53 PM,50.0,45.0,83,30.17,10.0,Variable,4.6,-,N/A,,Overcast,0,2013-11-05 05:53:00